H1 CPF 2 NER 2025 12 13 9 347 01 glonass127 H2 1106403 9127 37869 2025 12 13 0 0 0 2025 12 16 23 45 0 900 1 1 0 0 0 1 H9 10 0 61022 0.00000 0 23436821.471 3355859.726 9614850.449 10 0 61022 900.00000 0 22076901.011 3301823.331 12448458.561 10 0 61022 1800.00000 0 20387904.910 3398538.649 15041692.536 10 0 61022 2700.00000 0 18417796.360 3684690.807 17344633.199 10 0 61022 3600.00000 0 16223126.176 4189245.363 19312974.439 10 0 61022 4500.00000 0 13866817.096 4930032.128 20908850.491 10 0 61022 5400.00000 0 11415704.691 5912800.680 22101542.280 10 0 61022 6300.00000 0 8937934.661 7130786.229 22868051.512 10 0 61022 7200.00000 0 6500321.554 8564804.027 23193533.306 10 0 61022 8100.00000 0 4165775.316 10183869.399 23071580.250 10 0 61022 9000.00000 0 1990899.144 11946319.544 22504352.882 10 0 61022 9900.00000 0 23855.551 13801393.177 21502553.683 10 0 61022 10800.00000 0 -1697412.984 15691205.574 20085243.890 10 0 61022 11700.00000 0 -3146536.159 17553040.369 18279504.707 10 0 61022 12600.00000 0 -4309584.875 19321865.998 16119946.931 10 0 61022 13500.00000 0 -5185420.370 20932974.751 13648075.573 10 0 61022 14400.00000 0 -5785507.603 22324636.323 10911518.734 10 0 61022 15300.00000 0 -6133198.827 23440655.864 7963132.816 10 0 61022 16200.00000 0 -6262515.361 24232729.264 4859998.952 10 0 61022 17100.00000 0 -6216476.896 24662495.521 1662328.270 10 0 61022 18000.00000 0 -6045047.208 24703197.642 -1567703.777 10 0 61022 18900.00000 0 -5802782.296 24340879.146 -4767171.557 10 0 61022 19800.00000 0 -5546280.487 23575062.276 -7873637.648 10 0 61022 20700.00000 0 -5331543.601 22418875.854 -10826389.862 10 0 61022 21600.00000 0 -5211362.936 20898624.200 -13567650.812 10 0 61022 22500.00000 0 -5232843.642 19052812.761 -16043733.978 10 0 61022 23400.00000 0 -5435175.637 16930669.842 -18206121.053 10 0 61022 24300.00000 0 -5847748.905 14590226.038 -20012436.955 10 0 61022 25200.00000 0 -6488696.236 12096032.399 -21427301.123 10 0 61022 26100.00000 0 -7363927.875 9516614.356 -22423036.523 10 0 61022 27000.00000 0 -8466700.961 6921769.964 -22980221.124 10 0 61022 27900.00000 0 -9777743.206 4379827.647 -23088070.323 10 0 61022 28800.00000 0 -11265925.913 1954980.250 -22744642.680 10 0 61022 29700.00000 0 -12889457.437 -295191.600 -21956865.416 10 0 61022 30600.00000 0 -14597545.590 -2321902.446 -20740380.198 10 0 61022 31500.00000 0 -16332457.204 -4086960.086 -19119213.656 10 0 61022 32400.00000 0 -18031886.220 -5564104.763 -17125280.929 10 0 61022 33300.00000 0 -19631528.702 -6739835.582 -14797733.922 10 0 61022 34200.00000 0 -21067754.812 -7613692.648 -12182169.222 10 0 61022 35100.00000 0 -22280264.256 -8197986.839 -9329713.248 10 0 61022 36000.00000 0 -23214613.145 -8516992.771 -6296004.492 10 0 61022 36900.00000 0 -23824506.422 -8605643.046 -3140094.462 10 0 61022 37800.00000 0 -24073760.624 -8507782.624 76709.898 10 0 61022 38700.00000 0 -23937856.437 -8274060.132 3292038.946 10 0 61022 39600.00000 0 -23405018.198 -7959547.342 6443664.717 10 0 61022 40500.00000 0 -22476777.579 -7621188.516 9470693.853 10 0 61022 41400.00000 0 -21168000.492 -7315187.409 12314726.995 10 0 61022 42300.00000 0 -19506378.095 -7094441.282 14920963.613 10 0 61022 43200.00000 0 -17531404.711 -7006128.477 17239232.992 10 0 61022 44100.00000 0 -15292886.075 -7089548.970 19224933.923 10 0 61022 45000.00000 0 -12849039.727 -7374306.413 20839867.532 10 0 61022 45900.00000 0 -10264265.375 -7878905.881 22052949.772 10 0 61022 46800.00000 0 -7606675.548 -8609824.549 22840792.197 10 0 61022 47700.00000 0 -4945486.225 -9561093.457 23188141.709 10 0 61022 48600.00000 0 -2348372.316 -10714408.054 23088172.047 10 0 61022 49500.00000 0 121105.850 -12039764.156 22542621.945 10 0 61022 50400.00000 0 2405901.482 -13496594.949 21561776.890 10 0 61022 51300.00000 0 4457608.937 -15035364.496 20164293.717 10 0 61022 52200.00000 0 6238233.540 -16599554.659 18376869.457 10 0 61022 53100.00000 0 7721530.946 -18127965.902 16233758.346 10 0 61022 54000.00000 0 8893860.291 -19557239.013 13776143.434 10 0 61022 54900.00000 0 9754514.619 -20824494.786 11051371.912 10 0 61022 55800.00000 0 10315513.165 -21869982.620 8112066.100 10 0 61022 56700.00000 0 10600862.220 -22639627.432 5015124.855 10 0 61022 57600.00000 0 10645313.546 -23087367.088 1820632.850 10 0 61022 58500.00000 0 10492670.800 -23177180.176 -1409302.128 10 0 61022 59400.00000 0 10193714.163 -22884715.901 -4611761.545 10 0 61022 60300.00000 0 9803830.402 -22198453.975 -7724253.958 10 0 61022 61200.00000 0 9380449.121 -21120341.853 -10685952.793 10 0 61022 62100.00000 0 8980395.140 -19665878.853 -13438907.952 10 0 61022 63000.00000 0 8657271.437 -17863640.458 -15929205.184 10 0 61022 63900.00000 0 8458986.361 -15754260.501 -18108047.926 10 0 61022 64800.00000 0 8425533.044 -13388912.617 -19932737.908 10 0 61022 65700.00000 0 8587118.221 -10827354.415 -21367533.017 10 0 61022 66600.00000 0 8962722.459 -8135617.015 -22384363.670 10 0 61022 67500.00000 0 9559154.965 -5383438.132 -22963392.342 10 0 61022 68400.00000 0 10370644.325 -2641547.974 -23093404.484 10 0 61022 69300.00000 0 11378983.032 21076.547 -22772023.027 10 0 61022 70200.00000 0 12554219.356 2539872.773 -22005742.735 10 0 61022 71100.00000 0 13855866.209 4857156.048 -20809784.692 10 0 61022 72000.00000 0 15234574.301 6924282.869 -19207775.225 10 0 61022 72900.00000 0 16634196.883 8703423.610 -17231257.321 10 0 61022 73800.00000 0 17994156.865 10168872.251 -14919046.124 10 0 61022 74700.00000 0 19252014.472 11307840.877 -12316443.266 10 0 61022 75600.00000 0 20346125.627 12120709.037 -9474327.527 10 0 61022 76500.00000 0 21218278.106 12620721.476 -6448141.583 10 0 61022 77400.00000 0 21816194.151 12833151.157 -3296796.377 10 0 61022 78300.00000 0 22095794.793 12793966.848 -81515.854 10 0 61022 79200.00000 0 22023131.874 12548065.057 3135354.582 10 0 61022 80100.00000 0 21575908.409 12147143.623 6291552.358 10 0 61022 81000.00000 0 20744525.845 11647308.604 9326091.724 10 0 61022 81900.00000 0 19532616.517 11106516.034 12180425.240 10 0 61022 82800.00000 0 17957041.113 10581956.107 14799551.658 10 0 61022 83700.00000 0 16047353.051 10127488.739 17133050.941 10 0 61022 84600.00000 0 13844752.920 9791236.452 19136028.744 10 0 61022 85500.00000 0 11400576.672 9613433.402 20769954.759 10 0 61023 0.00000 0 8774379.800 9624618.411 22003381.269 10 0 61023 900.00000 0 6031693.648 9844245.655 22812530.987 10 0 61023 1800.00000 0 3241547.847 10279769.687 23181743.199 10 0 61023 2700.00000 0 473853.653 10926242.409 23103773.149 10 0 61023 3600.00000 0 -2203243.507 11766439.277 22579937.665 10 0 61023 4500.00000 0 -4725937.385 12771510.795 21620104.674 10 0 61023 5400.00000 0 -7037156.374 13902134.372 20242525.539 10 0 61023 6300.00000 0 -9088684.089 15110121.336 18473511.561 10 0 61023 7200.00000 0 -10842918.455 16340415.177 16346958.416 10 0 61023 8100.00000 0 -12274196.625 17533400.636 13903724.816 10 0 61023 9000.00000 0 -13369630.028 18627429.704 11190874.378 10 0 61023 9900.00000 0 -14129413.319 19561460.627 8260792.482 10 0 61023 10800.00000 0 -14566592.442 20277700.061 5170192.732 10 0 61023 11700.00000 0 -14706299.323 20724137.100 1979030.331 10 0 61023 12600.00000 0 -14584483.310 20856861.109 -1250657.615 10 0 61023 13500.00000 0 -14246191.090 20642063.243 -4455962.626 10 0 61023 14400.00000 0 -13743466.691 20057633.953 -7574342.094 10 0 61023 15300.00000 0 -13132960.161 19094285.353 -10544857.759 10 0 61023 16200.00000 0 -12473346.902 17756147.202 -13309389.300 10 0 61023 17100.00000 0 -11822668.558 16060807.762 -15813796.961 10 0 61023 18000.00000 0 -11235710.456 14038794.815 -18009007.838 10 0 61023 18900.00000 0 -10761529.489 11732516.534 -19852002.065 10 0 61023 19800.00000 0 -10441240.065 9194705.556 -21306677.213 10 0 61023 20700.00000 0 -10306154.644 6486431.470 -22344572.061 10 0 61023 21600.00000 0 -10376359.788 3674765.762 -22945434.137 10 0 61023 22500.00000 0 -10659789.546 830198.424 -23097619.145 10 0 61023 23400.00000 0 -11151836.033 -1976083.922 -22798314.223 10 0 61023 24300.00000 0 -11835513.454 -4674942.787 -22053581.122 10 0 61023 25200.00000 0 -12682167.618 -7201939.330 -20878219.401 10 0 61023 26100.00000 0 -13652699.192 -9499780.947 -19295453.740 10 0 61023 27000.00000 0 -14699246.823 -11520460.703 -17336453.286 10 0 61023 27900.00000 0 -15767256.602 -13227001.109 -15039694.416 10 0 61023 28800.00000 0 -16797848.075 -14594731.241 -12450181.565 10 0 61023 29700.00000 0 -17730374.839 -15612046.586 -9618543.464 10 0 61023 30600.00000 0 -18505070.123 -16280623.346 -6600024.456 10 0 61023 31500.00000 0 -19065664.851 -16615082.215 -3453392.355 10 0 61023 32400.00000 0 -19361867.754 -16642119.919 -239785.533 10 0 61023 33300.00000 0 -19351603.723 -16399148.894 2978477.426 10 0 61023 34200.00000 0 -19002917.555 -15932505.687 6139101.940 10 0 61023 35100.00000 0 -18295464.981 -15295306.006 9181012.447 10 0 61023 36000.00000 0 -17221530.461 -14545038.108 12045515.923 10 0 61023 36900.00000 0 -15786531.250 -13740996.190 14677412.863 10 0 61023 37800.00000 0 -14008988.279 -12941660.966 17026036.195 10 0 61023 38700.00000 0 -11919966.228 -12202135.925 19046200.496 10 0 61023 39600.00000 0 -9562006.674 -11571744.737 20699045.813 10 0 61023 40500.00000 0 -6987597.915 -11091887.927 21952762.384 10 0 61023 41400.00000 0 -4257243.562 -10794246.133 22783184.693 10 0 61023 42300.00000 0 -1437207.621 -10699403.019 23174245.344 10 0 61023 43200.00000 0 1402973.648 -10815944.027 23118281.355 10 0 61023 44100.00000 0 4193113.574 -11140068.126 22616187.557 10 0 61023 45000.00000 0 6865025.604 -11655729.279 21677413.856 10 0 61023 45900.00000 0 9355096.124 -12335303.197 20319805.348 10 0 61023 46800.00000 0 11606675.711 -13140753.784 18569286.487 10 0 61023 47700.00000 0 13572191.500 -14025253.355 16459392.937 10 0 61023 48600.00000 0 15214893.836 -14935191.795 14030657.283 10 0 61023 49500.00000 0 16510164.423 -15812493.372 11329857.430 10 0 61023 50400.00000 0 17446330.360 -16597146.219 8409139.345 10 0 61023 51300.00000 0 18024948.270 -17229839.692 5325028.588 10 0 61023 52200.00000 0 18260544.405 -17654598.946 2137347.847 10 0 61023 53100.00000 0 18179819.302 -17821304.941 -1091939.661 10 0 61023 54000.00000 0 17820348.360 -17687991.632 -4299938.770 10 0 61023 54900.00000 0 17228831.571 -17222820.464 -7424058.924 10 0 61023 55800.00000 0 16458965.494 -16405645.208 -10403253.250 10 0 61023 56700.00000 0 15569027.553 -15229097.091 -13179234.060 10 0 61023 57600.00000 0 14619275.869 -13699140.524 -15697638.670 10 0 61023 58500.00000 0 13669276.479 -11835072.468 -17909120.111 10 0 61023 59400.00000 0 12775273.514 -9668962.670 -19770338.831 10 0 61023 60300.00000 0 11987716.282 -7244556.424 -21244833.619 10 0 61023 61200.00000 0 11349050.590 -4615685.101 -22303752.718 10 0 61023 62100.00000 0 10891870.028 -1844251.242 -22926429.383 10 0 61023 63000.00000 0 10637507.045 1002126.497 -23100789.786 10 0 61023 63900.00000 0 10595124.254 3852708.417 -22823585.050 10 0 61023 64800.00000 0 10761344.309 6636358.665 -22100443.279 10 0 61023 65700.00000 0 11120433.038 9284284.385 -20945741.491 10 0 61023 66600.00000 0 11645026.338 11732673.431 -19382301.371 10 0 61023 67500.00000 0 12297367.782 13925119.833 -17440916.554 10 0 61023 68400.00000 0 13031001.910 15814735.963 -15159722.694 10 0 61023 69300.00000 0 13792848.877 17365864.270 -12583424.797 10 0 61023 70200.00000 0 14525570.177 18555319.181 -9762399.056 10 0 61023 71100.00000 0 15170123.364 19373110.172 -6751688.771 10 0 61023 72000.00000 0 15668396.352 19822619.323 -3609915.730 10 0 61023 72900.00000 0 15965809.360 19920229.900 -398129.716 10 0 61023 73800.00000 0 16013774.794 19694425.477 2821380.536 10 0 61023 74700.00000 0 15771912.276 19184401.118 5986291.406 10 0 61023 75600.00000 0 15209927.050 18438247.908 9035440.352 10 0 61023 76500.00000 0 14309074.633 17510789.119 11909991.426 10 0 61023 77400.00000 0 13063152.291 16461159.911 14554549.246 10 0 61023 78300.00000 0 11478977.522 15350232.012 16918201.817 10 0 61023 79200.00000 0 9576334.979 14237990.327 18955474.491 10 0 61023 80100.00000 0 7387394.673 13180969.499 20627179.235 10 0 61023 81000.00000 0 4955625.488 12229855.244 21901145.421 10 0 61023 81900.00000 0 2334248.000 11427348.102 22752820.498 10 0 61023 82800.00000 0 -415711.340 10806376.323 23165730.886 10 0 61023 83700.00000 0 -3227686.837 10388730.485 23131795.628 10 0 61023 84600.00000 0 -6032070.561 10184175.542 22651487.371 10 0 61023 85500.00000 0 -8758839.962 10190077.004 21733837.350 10 0 61024 0.00000 0 -11340210.640 10391557.438 20396283.387 10 0 61024 900.00000 0 -13713208.816 10762178.433 18664361.209 10 0 61024 1800.00000 0 -15822055.741 11265121.457 16571244.468 10 0 61024 2700.00000 0 -17620271.019 11854821.229 14157137.126 10 0 61024 3600.00000 0 -19072404.222 12478985.668 11468528.577 10 0 61024 4500.00000 0 -20155323.303 13080920.179 8557322.360 10 0 61024 5400.00000 0 -20859004.192 13602060.350 5479852.887 10 0 61024 6300.00000 0 -21186786.315 13984607.309 2295807.202 10 0 61024 7200.00000 0 -21155080.768 14174154.399 -932928.442 10 0 61024 8100.00000 0 -20792540.961 14122192.925 -4143475.184 10 0 61024 9000.00000 0 -20138728.541 13788388.698 -7273197.381 10 0 61024 9900.00000 0 -19242329.457 13142529.859 -10260942.247 10 0 61024 10800.00000 0 -18158994.917 12166059.831 -13048257.225 10 0 61024 11700.00000 0 -16948898.838 10853126.617 -15580558.944 10 0 61024 12600.00000 0 -15674116.283 9211100.298 -17808228.291 10 0 61024 13500.00000 0 -14395935.707 7260533.620 -19687607.589 10 0 61024 14400.00000 0 -13172220.983 5034564.793 -21181878.001 10 0 61024 15300.00000 0 -12054937.274 2577786.080 -22261797.971 10 0 61024 16200.00000 0 -11087947.606 -55374.861 -22906286.796 10 0 61024 17100.00000 0 -10305174.976 -2802692.660 -23102841.011 10 0 61024 18000.00000 0 -9729208.731 -5596514.454 -22847775.215 10 0 61024 18900.00000 0 -9370414.167 -8366361.899 -22146282.963 10 0 61024 19800.00000 0 -9226582.174 -11041654.462 -21012317.468 10 0 61024 20700.00000 0 -9283132.034 -13554438.596 -19468295.809 10 0 61024 21600.00000 0 -9513856.404 -15842007.673 -17544634.214 10 0 61024 22500.00000 0 -9882174.081 -17849302.822 -15279125.481 10 0 61024 23400.00000 0 -10342834.493 -19530994.791 -12716172.890 10 0 61024 24300.00000 0 -10843998.766 -20853161.194 -9905897.712 10 0 61024 25200.00000 0 -11329606.702 -21794491.295 -6903139.786 10 0 61024 26100.00000 0 -11741927.433 -22346970.941 -3766372.474 10 0 61024 27000.00000 0 -12024184.595 -22516022.488 -556554.628 10 0 61024 27900.00000 0 -12123144.577 -22320097.748 2664057.179 10 0 61024 28800.00000 0 -11991558.934 -21789744.654 5833112.580 10 0 61024 29700.00000 0 -11590358.972 -20966190.027 8889364.281 10 0 61024 30600.00000 0 -10890511.794 -19899500.476 11773835.625 10 0 61024 31500.00000 0 -9874461.582 -18646399.973 14430937.508 10 0 61024 32400.00000 0 -8537097.495 -17267836.010 16809515.060 10 0 61024 33300.00000 0 -6886209.282 -15826395.753 18863806.302 10 0 61024 34200.00000 0 -4942412.507 -14383678.697 20554296.798 10 0 61024 35100.00000 0 -2738546.739 -12997733.345 21848456.489 10 0 61024 36000.00000 0 -318570.920 -11720662.216 22721346.911 10 0 61024 36900.00000 0 2263999.857 -10596492.297 23156089.098 10 0 61024 37800.00000 0 4948053.889 -9659397.194 23144184.582 10 0 61024 38700.00000 0 7667160.761 -8932343.114 22685683.952 10 0 61024 39600.00000 0 10352076.825 -8426213.972 21789199.581 10 0 61024 40500.00000 0 12933378.166 -8139451.869 20471761.229 10 0 61024 41400.00000 0 15344115.345 -8058228.699 18758515.531 10 0 61024 42300.00000 0 17522382.505 -8157143.304 16682272.764 10 0 61024 43200.00000 0 19413696.047 -8400417.194 14282906.748 10 0 61024 44100.00000 0 20973084.718 -8743541.294 11606616.471 10 0 61024 45000.00000 0 22166803.698 -9135307.010 8705060.781 10 0 61024 45900.00000 0 22973599.837 -9520138.329 5634380.287 10 0 61024 46800.00000 0 23385472.949 -9840628.015 2454123.413 10 0 61024 47700.00000 0 23407898.654 -10040171.281 -773903.787 10 0 61024 48600.00000 0 23059500.599 -10065584.956 -3986842.143 10 0 61024 49500.00000 0 22371183.296 -9869599.558 -7122014.329 10 0 61024 50400.00000 0 21384760.049 -9413116.057 -10118164.949 10 0 61024 51300.00000 0 20151132.601 -8667128.313 -12916679.661 10 0 61024 52200.00000 0 18728098.962 -7614225.941 -15462757.209 10 0 61024 53100.00000 0 17177882.594 -6249610.122 -17706508.782 10 0 61024 54000.00000 0 15564488.692 -4581575.818 -19603960.661 10 0 61024 54900.00000 0 13951001.198 -2631437.032 -21117938.073 10 0 61024 55800.00000 0 12396936.989 -432896.140 -22218810.947 10 0 61024 56700.00000 0 10955771.160 1969117.379 -22885085.474 10 0 61024 57600.00000 0 9672739.716 4520090.243 -23103828.982 10 0 61024 58500.00000 0 8583013.657 7157981.111 -22870919.534 10 0 61024 59400.00000 0 7710321.837 9815601.347 -22191115.689 10 0 61024 60300.00000 0 7066080.159 12423219.504 -21077945.988 10 0 61024 61200.00000 0 6649062.327 14911278.815 -19553421.642 10 0 61024 62100.00000 0 6445623.710 17213112.602 -17647579.833 10 0 61024 63000.00000 0 6430465.850 19267543.138 -15397868.518 10 0 61024 63900.00000 0 6567905.963 21021255.040 -12848386.943 10 0 61024 64800.00000 0 6813594.275 22430844.634 -10048998.854 10 0 61024 65700.00000 0 7116603.373 23464461.076 -7054337.772 10 0 61024 66600.00000 0 7421798.429 24102972.938 -3922725.590 10 0 61024 67500.00000 0 7672386.037 24340614.473 -715027.032 10 0 61024 68400.00000 0 7812532.694 24185087.921 2506536.725 10 0 61024 69300.00000 0 7789942.009 23657121.127 5679591.712 10 0 61024 70200.00000 0 7558282.413 22789502.400 8742808.932 10 0 61024 71100.00000 0 7079364.269 21625635.786 11637073.823 10 0 61024 72000.00000 0 6324976.402 20217679.103 14306606.086 10 0 61024 72900.00000 0 5278306.844 18624343.781 16700010.249 10 0 61024 73800.00000 0 3934889.848 16908448.199 18771238.965 10 0 61024 74700.00000 0 2303040.894 15134325.691 20480453.039 10 0 61024 75600.00000 0 403762.211 13365193.468 21794764.303 10 0 61024 76500.00000 0 -1729877.614 11660589.355 22688849.381 10 0 61024 77400.00000 0 -4053865.311 10073980.267 23145424.564 10 0 61024 78300.00000 0 -6514821.442 8650639.074 23155574.119 10 0 61024 79200.00000 0 -9051973.214 7425875.718 22718926.400 10 0 61024 80100.00000 0 -11599443.226 6423694.340 21843674.256 10 0 61024 81000.00000 0 -14088762.970 5655931.373 20546438.360 10 0 61024 81900.00000 0 -16451510.460 5121910.444 18851974.357 10 0 61024 82800.00000 0 -18621965.558 4808629.390 16792727.079 10 0 61024 83700.00000 0 -20539675.021 4691473.211 14408237.608 10 0 61024 84600.00000 0 -22151821.827 4735425.262 11744411.570 10 0 61024 85500.00000 0 -23415300.171 4896728.234 8852659.896 10 0 61025 0.00000 0 -24298408.465 5124927.267 5788926.309 10 0 61025 900.00000 0 -24782088.038 5365210.951 2612616.644 10 0 61025 1800.00000 0 -24860651.845 5560951.993 -614546.356 10 0 61025 2700.00000 0 -24541971.206 5656340.483 -3829726.479 10 0 61025 3600.00000 0 -23847108.414 5598996.882 -6970207.839 10 0 61025 4500.00000 0 -22809408.652 5342451.961 -9974635.360 10 0 61025 5400.00000 0 -21473087.369 4848385.615 -12784235.620 10 0 61025 6300.00000 0 -19891371.648 4088526.066 -15343991.884 10 0 61025 7200.00000 0 -18124273.817 3046125.198 -17603747.717 10 0 61025 8100.00000 0 -16236092.021 1716943.861 -19519214.987 10 0 61025 9000.00000 0 -14292744.680 109702.202 -21052864.136 10 0 61025 9900.00000 0 -12359053.254 -1754026.594 -22174677.197 10 0 61025 10800.00000 0 -10496089.993 -3840476.324 -22862747.331 10 0 61025 11700.00000 0 -8758704.372 -6104874.604 -23103712.197 10 0 61025 12600.00000 0 -7193333.904 -8493106.371 -22893012.355 10 0 61025 13500.00000 0 -5836192.238 -10943783.354 -22234969.965 10 0 61025 14400.00000 0 -4711910.606 -13390631.226 -21142687.094 10 0 61025 15300.00000 0 -3832688.698 -15765092.632 -19637766.967 10 0 61025 16200.00000 0 -3197988.583 -17999035.407 -17749865.360 10 0 61025 17100.00000 0 -2794781.647 -20027451.227 -15516082.855 10 0 61025 18000.00000 0 -2598334.661 -21791030.888 -12980212.045 10 0 61025 18900.00000 0 -2573498.032 -23238508.403 -10191856.517 10 0 61025 19800.00000 0 -2676438.095 -24328676.615 -7205440.889 10 0 61025 20700.00000 0 -2856736.914 -25031991.529 -4079133.099 10 0 61025 21600.00000 0 -3059768.063 -25331700.664 -873701.399 10 0 61025 22500.00000 0 -3229246.064 -25224451.087 2348670.640 10 0 61025 23400.00000 0 -3309840.753 -24720354.916 5525587.549 10 0 61025 24300.00000 0 -3249746.119 -23842512.851 8595640.604 10 0 61025 25200.00000 0 -3003096.034 -22626018.500 11499579.205 10 0 61025 26100.00000 0 -2532126.556 -21116487.436 14181433.655 10 0 61025 27000.00000 0 -1808995.621 -19368173.746 16589569.518 10 0 61025 27900.00000 0 -817185.612 -17441753.053 18677655.553 10 0 61025 28800.00000 0 447568.325 -15401863.935 20405529.123 10 0 61025 29700.00000 0 1976861.973 -13314508.393 21739945.026 10 0 61025 30600.00000 0 3749734.851 -11244417.201 22655195.787 10 0 61025 31500.00000 0 5733308.005 -9252486.803 23133593.498 10 0 61025 32400.00000 0 7883921.964 -7393391.143 23165805.433 10 0 61025 33300.00000 0 10148730.016 -5713464.768 22751037.715 10 0 61025 34200.00000 0 12467683.840 -4248942.800 21897063.406 10 0 61025 35100.00000 0 14775832.673 -3024629.242 20620093.577 10 0 61025 36000.00000 0 17005844.225 -2053048.292 18944492.110 10 0 61025 36900.00000 0 19090645.950 -1334114.200 16902337.362 10 0 61025 37800.00000 0 20966079.557 -855334.523 14532836.353 10 0 61025 38700.00000 0 22573460.020 -592539.963 11881599.726 10 0 61025 39600.00000 0 23861932.989 -511112.389 8999788.536 10 0 61025 40500.00000 0 24790531.644 -567661.597 5943146.764 10 0 61025 41400.00000 0 25329845.306 -712082.181 2770936.137 10 0 61025 42300.00000 0 25463227.360 -889905.034 -455207.346 10 0 61025 43200.00000 0 25187488.707 -1044844.564 -3672473.528 10 0 61025 44100.00000 0 24513044.307 -1121433.329 -6818111.147 10 0 61025 45000.00000 0 23463503.498 -1067630.867 -9830668.594 10 0 61025 45900.00000 0 22074718.749 -837293.706 -12651216.370 10 0 61025 46800.00000 0 20393331.087 -392398.607 -15224525.027 10 0 61025 47700.00000 0 18474872.606 295078.792 -17500172.967 10 0 61025 48600.00000 0 16381506.120 1241713.192 -19433559.790 10 0 61025 49500.00000 0 14179498.102 2451671.566 -20986802.953 10 0 61025 50400.00000 0 11936532.961 3916291.169 -22129498.060 10 0 61025 51300.00000 0 9718983.661 5614213.525 -22839326.359 10 0 61025 52200.00000 0 7589255.483 7512069.954 -23102496.589 10 0 61025 53100.00000 0 5603316.329 9565689.971 -22914012.172 10 0 61025 54000.00000 0 3808518.449 11721781.156 -22277758.812 10 0 61025 54900.00000 0 2241803.361 13920008.634 -21206411.615 10 0 61025 55800.00000 0 928364.697 16095385.134 -19721164.893 10 0 61025 56700.00000 0 -119176.547 18180869.517 -17851291.651 10 0 61025 57600.00000 0 -901052.356 20110063.089 -15633543.324 10 0 61025 58500.00000 0 -1430075.179 21819889.352 -13111403.688 10 0 61025 59400.00000 0 -1730827.925 23253144.187 -10334213.671 10 0 61025 60300.00000 0 -1838354.652 24360809.728 -7356186.208 10 0 61025 61200.00000 0 -1796411.035 25104035.856 -4235332.259 10 0 61025 62100.00000 0 -1655351.854 25455708.046 -1032320.432 10 0 61025 63000.00000 0 -1469747.356 25401538.201 2190706.540 10 0 61025 63900.00000 0 -1295830.898 24940635.715 5371334.907 10 0 61025 64800.00000 0 -1188886.333 24085537.823 8448079.343 10 0 61025 65700.00000 0 -1200685.148 22861700.776 11361556.182 10 0 61025 66600.00000 0 -1377080.311 21306475.555 14055609.064 10 0 61025 67500.00000 0 -1755856.454 19467612.431 16478367.069 10 0 61025 68400.00000 0 -2364924.838 17401357.552 18583217.272 10 0 61025 69300.00000 0 -3220936.904 15170220.585 20329675.490 10 0 61025 70200.00000 0 -4328372.940 12840505.041 21684141.085 10 0 61025 71100.00000 0 -5679143.062 10479701.773 22620523.766 10 0 61025 72000.00000 0 -7252717.174 8153851.056 23120732.355 10 0 61025 72900.00000 0 -9016779.412 5924979.602 23175017.669 10 0 61025 73800.00000 0 -10928381.800 3848715.664 22782163.693 10 0 61025 74700.00000 0 -12935551.816 1972178.347 21949523.323 10 0 61025 75600.00000 0 -14979290.409 332226.523 20692897.131 10 0 61025 76500.00000 0 -16995880.990 -1045861.341 19036255.799 10 0 61025 77400.00000 0 -18919416.834 -2149221.955 17011309.248 10 0 61025 78300.00000 0 -20684444.715 -2977721.330 14656927.984 10 0 61025 79200.00000 0 -22228616.825 -3543733.891 12018424.768 10 0 61025 80100.00000 0 -23495241.455 -3871393.967 9146707.549 10 0 61025 81000.00000 0 -24435625.803 -3995348.937 6097317.360 10 0 61025 81900.00000 0 -25011111.680 -3959064.445 2929367.652 10 0 61025 82800.00000 0 -25194716.455 -3812751.431 -295595.722 10 0 61025 83700.00000 0 -24972307.384 -3611001.580 -3514792.282 10 0 61025 84600.00000 0 -24343256.434 -3410231.159 -6665438.904 10 0 61025 85500.00000 0 -23320544.573 -3266042.423 -9685990.801 99